AALTO-1 (42775 NORAD) Tracking and Keplerian Element Data

This shows tracking and keplerian element data for the satellite.

Feedback or suggestion? Click here.




ElementValue
Catalog42775
NameAALTO-1
Epoch Orbit23665
Epoch Day270.0062343
Epoch Year2021
RAAN312.6159
Inclination97.2371
Eccentricity0.001366
Argument of Perigee169.7378
Mean Anonmoly190.4141
Mean Motion15.22987349
Decay Rate2.448E-05
L11 42775U 17036L 21270.00623430 .00002448 00000-0 10681-3 0 9999
L22 42775 97.2371 312.6159 0013660 169.7378 190.4141 15.22987349236652

Live tracking and technical data element details for AALTO-1 (NORAD 42775). AALTO-1 can be tracked NOW for your location showing map with azimuth and elevation plus other details from your city location.

Track the satellite on the map from your city or location and see movement details for azimuth, elevation, latitude, longitude, range, height, and movement on the map or in text.







IsCatalogInMostPopularTable: catalog: 42775, numindb: 544
Update: records affected: 1



GetName: 42775 AALTO-1

Hit Count: updated at: Tue, 28 Sep 2021 15:47:49 GMT